Location: H�rhausen
(47.6320°N, 8.9695°E)
Time: 08:00:24
(UTC+00:00)

Daily predictions for brighter satellites

Satellite Brightness Start Highest point End
(mag) Time Altitude Azimuth Time Altitude Azimuth Time Altitude Azimuth
Cosmos 1939 Rocket 3.8 18:15:26 10° S 18:19:20 52° W 18:23:12 10° NNW
STARLINK-1100 3.7 18:15:43 10° WNW 18:19:45 70° NNE 18:23:48 10° ESE
STARLINK-1187 3.1 18:16:51 10° SW 18:19:55 54° SE 18:23:00 10° ENE
STARLINK-1216 4.2 18:16:16 10° SSW 18:19:56 35° SE 18:23:37 10° ENE
STARLINK-1188 3.2 18:16:58 10° SW 18:19:59 48° SE 18:23:00 10° ENE
STARLINK-1198 3.2 18:17:13 10° SW 18:20:14 48° SE 18:23:15 10° ENE
STARLINK-1235 2.9 18:17:30 10° SW 18:20:36 62° SSE 18:23:44 10° ENE
Cosmos 371 Rocket 3.7 18:16:29 10° NNW 18:21:17 70° WSW 18:26:05 10° SSE
Cosmos 494 Rocket 4.2 18:16:42 10° S 18:21:36 47° ESE 18:26:34 10° NNE
STARLINK-1199 3.1 18:18:53 10° SW 18:21:55 50° SE 18:24:59 10° ENE
STARLINK-1191 3.1 18:19:20 10° SW 18:22:23 50° SE 18:25:27 10° ENE
CZ-4C R/B 4.0 18:17:38 10° W 18:22:28 31° NNW 18:28:07 10° NNE
USA 81 4.1 18:17:15 10° N 18:22:30 61° E 18:27:42 10° SSE
Cosmos 1733 3.6 18:19:10 10° SSE 18:22:41 38° E 18:26:12 10° NNE
STARLINK-1210 3.1 18:19:47 10° SW 18:22:49 51° SE 18:25:54 10° ENE
STARLINK-1221 3.1 18:20:15 10° SW 18:23:18 51° SE 18:26:23 10° ENE
STARLINK-1219 3.1 18:20:41 10° SW 18:23:44 52° SE 18:26:49 10° ENE
STARLINK-67 2.4 18:21:32 10° WSW 18:24:07 86° NNW 18:26:43 10° ENE
STARLINK-1222 3.1 18:21:08 10° SW 18:24:10 52° SSE 18:27:15 10° ENE
STARLINK-1083 3.6 18:20:19 10° WNW 18:24:23 73° NNE 18:28:24 10° ESE
STARLINK-1237 4.1 18:20:50 10° SSW 18:24:34 38° SE 18:28:19 10° ENE
STARLINK-1211 3.1 18:21:35 10° SW 18:24:37 52° SSE 18:27:42 10° ENE
STARLINK-1214 3.1 18:22:02 10° SW 18:25:05 53° SE 18:28:10 10° ENE
FREGAT/IRIS 3.3 18:22:45 10° SE 18:25:11 30° ENE 18:27:38 10° N
Cosmos 1709 Rocket 4.4 18:19:20 10° N 18:25:16 43° ENE 18:31:05 10° SE
STARLINK-1245 3.0 18:22:31 10° SW 18:25:34 53° SE 18:28:37 10° ENE
STARLINK-1238 3.0 18:22:57 10° SW 18:26:00 54° SE 18:29:04 10° ENE
SPOT 3 Rocket 4.5 18:21:44 10° ESE 18:26:12 30° ENE 18:30:41 10° N
Cosmos 1331 Rocket 4.0 18:21:30 10° NNW 18:26:40 66° ENE 18:31:47 10° SSE
STARLINK-1205 3.0 18:23:52 10° SW 18:26:55 55° SE 18:29:59 10° ENE
STARLINK-1204 3.0 18:24:17 10° SW 18:27:21 55° SSE 18:30:25 10° ENE
Cosmos 1674 2.7 18:24:13 10° N 18:28:00 84° W 18:31:44 10° S
Cosmos 2219 Rocket 3.6 18:23:19 10° SW 18:28:41 42° NW 18:34:03 10° NNE
STARLINK-1125 3.6 18:24:56 10° WNW 18:28:59 77° NNE 18:33:02 10° ESE
STARLINK-1202 4.0 18:25:22 10° SSW 18:29:09 41° SE 18:32:57 10° ENE
Orbus 7S? 3.9 18:26:31 10° WNW 18:29:27 35° SW 18:31:43 10° SSE
SL-14 R/B 3.9 18:25:57 10° N 18:29:46 38° ENE 18:33:33 10° SE
STARLINK-1123 4.5 18:25:55 10° WNW 18:29:53 42° N 18:33:50 10° E
KORONAS-FOTON 3.9 18:27:17 10° N 18:31:08 85° W 18:34:56 10° S
STARLINK-1109 3.6 18:29:13 10° WNW 18:33:17 81° NNE 18:37:10 11° ESE
STARLINK-1246 3.9 18:30:15 10° SW 18:34:07 45° SE 18:38:00 10° ENE
STARLINK-1097 4.4 18:30:53 10° WNW 18:34:51 43° N 18:38:50 10° E
Cosmos 1943 Rocket 3.2 18:32:07 10° N 18:36:55 29° NE 18:41:19 12° ESE
MONITOR-E 4.2 18:34:46 10° SE 18:37:17 40° ENE 18:39:49 10° N
STARLINK-1091 3.6 18:33:53 10° WNW 18:37:57 85° NNE 18:41:39 12° ESE
Cosmos 1980 3.9 18:32:24 10° SSW 18:38:06 80° WNW 18:43:49 10° NNE
Cosmos 1766 3.3 18:34:21 10° S 18:38:20 85° E 18:42:21 10° N
STARLINK-1099 4.4 18:35:53 10° WNW 18:39:52 44° NNE 18:43:38 11° E
S3M 4.1 18:33:51 10° S 18:40:13 84° E 18:46:40 10° N
Ariane Rocket 3.0 18:36:49 10° SSE 18:41:54 84° ENE 18:47:00 10° NNW
STARLINK-1224 3.7 18:39:08 10° SW 18:43:03 51° SE 18:46:58 10° ENE
Cosmos 1386 Rocket 4.5 18:37:22 10° N 18:43:29 89° W 18:49:29 10° S
BREEZE-M DEB (TANK) 4.4 18:30:19 10° WNW 18:43:30 48° SW 18:47:01 10° SSE
SL-08 ROCKET BODY 4.5 18:37:30 10° N 18:43:41 90° W 18:49:43 10° S
STARLINK-1104 4.3 18:40:53 10° WNW 18:44:53 45° NNE 18:48:25 13° E
Cosmos 1455 Rocket 3.0 18:40:59 10° S 18:45:17 69° E 18:49:39 10° NNE
Cosmos 1110 Rocket 4.2 18:42:16 10° NNW 18:47:32 77° WSW 18:52:44 10° SSE
STARLINK-1225 3.7 18:43:47 10° SW 18:47:44 55° SE 18:51:41 10° ENE
STARLINK-1203 3.5 18:45:46 10° SW 18:49:39 60° SSE 18:53:33 10° ENE
STARLINK-1144 4.3 18:45:51 10° WNW 18:49:52 47° NNE 18:53:11 14° E
STARLINK-1072 3.5 18:47:06 10° WNW 18:51:06 80° SSW 18:54:14 16° SE
Cosmos 1892 Rocket 4.0 18:46:41 10° NNW 18:51:08 66° W 18:55:34 10° S
SL-16 R/B 2.4 18:46:08 10° S 18:51:35 50° ESE 18:57:01 10° NE
Cosmos 2333 Rocket 4.3 18:47:21 10° WSW 18:52:18 30° NW 18:57:16 10° NNE
STARLINK-1230 3.6 18:48:23 10° SW 18:52:21 59° SSE 18:56:20 10° ENE
Cosmos 1626 Rocket 3.8 18:48:29 10° N 18:52:46 46° ENE 18:56:58 10° SSE
USA 186 1.8 18:50:54 10° SSE 18:54:20 84° E 18:57:45 10° N
STARLINK-1103 4.2 18:50:50 10° WNW 18:54:52 48° NNE 18:57:58 16° E
Cosmos 1953 3.6 18:53:54 16° ESE 18:55:22 20° E 18:58:18 10° NE
ARGOS Delta rocket 4.2 18:50:19 10° S 18:55:24 79° W 19:00:48 10° NNW
STARLINK-1096 3.6 18:51:33 10° WNW 18:55:33 76° SSW 18:58:31 17° SE
STARLINK-1234 3.0 18:52:40 10° WSW 18:55:39 69° NNW 18:58:25 12° ENE
Cosmos 1626 2.0 18:52:01 10° N 18:55:43 69° E 18:59:24 10° SSE
STARLINK-1243 3.5 18:53:03 10° SW 18:57:02 63° SSE 19:00:53 11° ENE
Okean 1-7 Rocket 4.1 18:54:41 10° NNW 18:59:04 63° W 19:03:23 10° S
STARLINK-1101 4.2 18:55:50 10° WNW 18:59:53 50° NNE 19:02:46 18° E
STARLINK-1079 3.6 18:56:02 10° WNW 19:00:01 71° SSW 19:02:49 19° SE
Cosmos 1602 Rocket 4.0 18:56:01 10° N 19:00:19 44° ENE 19:03:54 14° SE
Aureole 3 4.4 18:57:26 12° SE 19:00:33 30° E 19:04:52 10° NNE
STARLINK-1236 3.5 18:57:41 10° SW 19:01:42 68° SSE 19:05:23 12° ENE
ATLAS 2AS CENTAUR R/B 4.1 18:57:41 10° NW 19:04:28 31° NNE 19:10:15 12° E
STARLINK-1116 3.7 19:00:31 10° WNW 19:04:30 67° SSW 19:07:08 20° SE
STARLINK-1102 4.1 19:00:49 10° WNW 19:04:52 52° NNE 19:07:32 20° E
H-2A R/B 2.3 19:00:55 10° S 19:06:14 75° WSW 19:11:27 10° NNW
Aureole 2 Rocket 3.8 19:06:53 10° N 19:09:46 23° ENE 19:10:31 21° ENE
STARLINK-1111 4.0 19:05:47 10° WNW 19:09:52 54° NNE 19:12:19 22° E
Cosmos 883 Rocket 4.5 19:04:14 10° S 19:10:26 87° E 19:16:45 10° N
STARLINK-1269 3.4 19:07:03 10° SW 19:11:06 78° SSE 19:14:25 15° ENE
Cosmos 1544 Rocket 3.6 19:08:20 10° S 19:12:43 83° W 19:17:11 10° N
ERBS 4.2 19:10:09 10° W 19:13:09 29° NNW 19:16:10 10° NE
STARLINK-1094 3.9 19:09:31 10° WNW 19:13:27 58° SW 19:15:46 23° SE
USA 234 3.2 19:08:21 10° ENE 19:14:51 63° SE 19:21:19 10° SW
STARLINK-1073 4.0 19:10:46 10° WNW 19:14:52 56° NNE 19:17:06 25° E
Cosmos 2297 3.8 19:09:41 10° NNW 19:15:22 77° WSW 19:20:56 11° SSE
CZ-2C R/B 3.8 19:10:52 10° NNE 19:15:36 59° ESE 19:20:14 10° S
STARLINK-1200 3.4 19:11:45 10° WSW 19:15:47 83° SSE 19:18:56 16° ENE
STARLINK-1117 4.0 19:14:02 10° WNW 19:17:58 54° SW 19:20:07 24° SSE
STARLINK-1121 3.9 19:15:46 10° WNW 19:19:52 59° NNE 19:21:53 28° E
STARLINK-1192 3.5 19:16:22 10° WSW 19:20:26 87° SSE 19:23:24 18° ENE
Cosmos 2237 Rocket 3.5 19:16:38 10° SW 19:21:58 43° NW 19:27:21 10° NNE
STARLINK-1078 4.1 19:18:32 10° WNW 19:22:27 50° SW 19:24:26 25° SSE
STARLINK-1106 3.8 19:20:43 10° WNW 19:24:50 62° NNE 19:26:39 31° E
Cosmos 1302 Rocket 4.1 19:19:49 10° NNW 19:25:06 77° WSW 19:29:43 14° SSE
STARLINK-1244 3.5 19:21:10 10° WSW 19:25:13 88° NW 19:28:01 19° ENE
STARLINK-1201 3.5 19:22:24 10° WSW 19:25:38 58° NNW 19:27:31 22° NE
STARLINK-1108 4.2 19:23:05 10° WNW 19:26:58 47° SW 19:28:47 27° SSE
CZ-2C R/B 2.8 19:22:37 10° NNE 19:27:38 47° E 19:32:35 10° S
Cosmos 1992 Rocket 4.3 19:23:10 10° NNW 19:28:15 49° ENE 19:30:33 29° ESE
Cosmos 2184 Rocket 4.2 19:22:19 10° N 19:28:30 51° ENE 19:32:14 23° SE
Cosmos 1758 Rocket 4.0 19:24:50 10° N 19:29:00 40° ENE 19:30:09 33° ESE
Cosmos 1269 Rocket 4.4 19:23:47 10° SSW 19:29:03 69° WNW 19:34:22 10° NNE
STARLINK-1112 3.8 19:25:43 10° WNW 19:29:51 65° NNE 19:31:27 35° E
STARLINK-1138 3.5 19:25:52 10° WSW 19:29:55 83° NNW 19:32:32 21° ENE
STARLINK-1209 3.8 19:28:14 10° W 19:31:01 40° NNW 19:32:14 25° NE
STARLINK-1071 4.3 19:27:37 10° WNW 19:31:27 44° SW 19:33:08 27° SSE
STARLINK-1228 3.9 19:29:14 10° W 19:31:59 40° NNW 19:33:08 26° NE
STARLINK-1124 4.4 19:28:31 10° WNW 19:32:28 44° SW 19:34:14 27° SSE
ARGOS 3.9 19:29:09 10° S 19:34:25 52° W 19:39:42 10° NNW
STARLINK-1143 3.6 19:30:39 10° WSW 19:34:42 79° NNW 19:37:08 23° ENE
STARLINK-1128 3.7 19:30:43 10° WNW 19:34:51 68° NNE 19:36:15 39° E
Cosmos 2251 Rocket 3.8 19:30:51 10° S 19:35:52 44° ESE 19:40:58 10° NE
SL-8 R/B 3.7 19:31:05 10° W 19:35:53 82° N 19:38:02 33° E
STARLINK-1110 4.4 19:32:09 10° WNW 19:35:58 41° SW 19:37:29 28° S
SL-24 R/B 4.0 19:32:47 10° NNE 19:37:32 87° ESE 19:41:39 10° SSW
STARLINK-1113 3.6 19:35:42 10° WNW 19:39:50 72° NNE 19:41:02 44° E
Cosmos 1470 3.2 19:37:47 10° SSW 19:41:37 61° W 19:45:29 10° N
Cosmos 1606 Rocket 4.3 19:43:16 34° ENE 19:43:16 34° ENE 19:46:51 10° NNE
STARLINK-1119 3.6 19:40:39 10° WNW 19:44:49 76° NNE 19:45:48 50° E
STARLINK-1241 3.7 19:41:08 10° WSW 19:45:09 70° NNW 19:47:05 29° NE
STARLINK-1233 3.9 19:42:25 10° W 19:45:27 44° NNW 19:46:21 33° NNE
Cosmos 2315 Rocket 4.4 19:39:37 10° SSW 19:45:52 67° WNW 19:52:14 10° N
STARLINK-1212 3.9 19:42:54 10° W 19:45:54 43° NNW 19:46:46 33° NNE
STARLINK-1105 3.9 19:43:19 10° W 19:46:21 43° NNW 19:47:13 33° NNE
SJ-6B 4.4 19:43:02 10° SSW 19:46:46 35° W 19:50:35 10° NNW
STARLINK-1206 3.9 19:43:50 10° W 19:46:50 43° NNW 19:47:37 34° NNE
MetOp-A 4.4 19:42:29 14° S 19:47:08 70° WSW 19:52:30 10° NNW
STARLINK-1247 3.9 19:44:16 10° W 19:47:16 42° NNW 19:48:03 34° NNE
Resurs 1-3 3.8 19:44:43 23° S 19:47:26 72° WSW 19:51:50 10° NNW
STARLINK-1227 3.9 19:44:40 10° W 19:47:42 43° NNW 19:48:30 34° NNE
ISS -3.6 19:44:38 10° WNW 19:48:00 62° NNE 19:48:11 61° NE
STARLINK-1218 3.9 19:45:11 10° W 19:48:10 42° NNW 19:48:55 35° NNE
STARLINK-1226 4.0 19:45:38 10° W 19:48:39 42° NNW 19:49:23 35° NNE
STARLINK-1254 4.0 19:46:02 10° W 19:49:03 42° NNW 19:49:48 35° NNE
ERS-1 Rocket 4.1 19:48:48 26° ENE 19:49:13 26° ENE 19:53:21 10° N
Cosmos 2154 Rocket 4.3 19:43:14 10° N 19:49:24 48° ENE 19:51:32 35° ESE
STARLINK-1215 4.0 19:46:33 10° W 19:49:32 42° NNW 19:50:13 35° NNE
Cosmos 1758 4.0 19:45:31 10° SSW 19:49:33 56° WNW 19:53:36 10° N
STARLINK-1239 3.8 19:45:45 10° WSW 19:49:44 67° NNW 19:51:31 31° NE
STARLINK-1114 3.5 19:45:39 10° WNW 19:49:49 80° NNE 19:50:36 57° E
STARLINK-1231 4.0 19:46:59 10° W 19:49:59 41° NNW 19:50:39 35° NNE
STARLINK-1232 4.0 19:47:54 10° W 19:50:53 41° NNW 19:51:31 36° NNE
USA 245 4.4 19:50:07 39° ESE 19:51:16 46° ENE 19:56:45 10° N
STARLINK-1217 4.0 19:48:21 10° W 19:51:20 41° NNW 19:51:58 36° NNE
STARLINK-1208 4.0 19:48:47 10° W 19:51:47 41° NNW 19:52:25 36° NNE
STARLINK-1229 4.0 19:49:15 10° W 19:52:14 40° NNW 19:52:49 36° NNE
IRIDIUM 104 4.4 19:47:16 10° N 19:52:31 81° W 19:56:26 18° S
STARLINK-1271 4.0 19:49:43 10° W 19:52:42 40° NNW 19:53:17 36° NNE
BREEZE-M DEB (TANK) 3.2 19:46:39 10° WNW 19:52:44 80° NNE 19:53:10 65° E
STARLINK-1270 4.0 19:50:11 10° W 19:53:09 40° NNW 19:53:42 36° NNE
BREEZE M DEB (TANK) 4.2 19:44:32 10° SW 19:53:32 37° SSE 19:53:49 37° SSE
STARLINK-1154 4.0 19:50:38 10° W 19:53:36 40° NNW 19:54:07 36° NNE
STARLINK-1240 3.9 19:50:22 10° WSW 19:54:22 63° NNW 19:55:56 34° NE
STARLINK-1197 4.0 19:51:32 10° W 19:54:30 40° NNW 19:55:00 36° N
Resurs 01 Rocket 1.6 19:53:05 38° S 19:54:47 85° WSW 19:59:13 10° NNW
STARLINK-1130 (DARKSAT) 3.5 19:50:37 10° WNW 19:54:47 85° NNE 19:55:22 64° ESE
STARLINK-1189 4.0 19:52:00 10° W 19:54:58 39° NNW 19:55:26 37° N
SPOT 5 4.2 19:56:05 21° NE 19:56:05 21° NE 19:58:55 10° NNE
Cosmos 2369 Rocket 2.1 19:50:05 10° NNW 19:55:49 76° ENE 19:57:50 41° SE
STARLINK-1187 4.1 19:52:52 10° W 19:55:50 38° NNW 19:56:20 35° N
STARLINK-1188 4.0 19:52:53 10° W 19:55:51 39° NNW 19:56:17 37° N
STARLINK-1198 4.0 19:53:08 10° W 19:56:06 39° NNW 19:56:31 37° N
STARLINK-1235 4.2 19:53:37 10° W 19:56:35 36° NNW 19:57:05 33° N
STARLINK-1199 4.0 19:54:50 10° W 19:57:50 39° NNW 19:58:13 37° N
STARLINK-1191 4.0 19:55:19 10° W 19:58:17 39° NNW 19:58:39 37° N
STARLINK-1210 4.1 19:55:45 10° W 19:58:44 39° NNW 19:59:04 37° N
STARLINK-1216 3.9 19:55:01 10° WSW 19:59:00 61° NNW 20:00:23 36° NE
STARLINK-1221 4.1 19:56:13 10° W 19:59:12 38° NNW 19:59:33 37° N
Cosmos 2263 4.3 19:53:56 10° NNW 19:59:31 61° ENE 20:01:00 45° ESE
STARLINK-1219 4.1 19:56:40 10° W 19:59:39 38° NNW 19:59:58 37° N
STARLINK-1084 3.4 19:55:36 10° WNW 19:59:46 90° NNE 20:00:09 73° ESE
STARLINK-1222 4.1 19:57:07 10° W 20:00:05 38° NNW 20:00:23 37° N
STARLINK-1211 4.1 19:57:35 10° W 20:00:33 38° NNW 20:00:48 37° N
STARLINK-1214 4.1 19:58:02 10° W 20:01:00 38° NNW 20:01:15 37° N
STARLINK-1245 4.1 19:58:32 10° W 20:01:28 37° NNW 20:01:40 37° N
STARLINK-1238 4.1 19:58:57 10° W 20:01:55 38° NNW 20:02:07 37° N
STARLINK-1205 4.1 19:59:54 10° W 20:02:51 37° NNW 20:02:59 37° N
STARLINK-1204 4.1 20:00:20 10° W 20:03:17 37° NNW 20:03:23 37° N
STARLINK-1237 4.0 19:59:41 10° W 20:03:40 58° NNW 20:04:52 39° NE
STARLINK-1098 3.4 20:00:34 10° WNW 20:04:44 86° SSW 20:04:55 80° SE
Cosmos 1726 2.2 20:06:29 67° NNE 20:06:29 67° NNE 20:09:48 10° N
Landsat 7 4.1 20:06:34 48° ENE 20:06:43 48° ENE 20:11:18 10° N
STARLINK-1202 4.1 20:04:20 10° W 20:08:18 55° NNW 20:09:18 42° NNE
Nadezhda 1 Rocket 4.0 20:06:17 36° SSE 20:08:52 62° E 20:15:10 10° NNE
STARLINK-1123 3.5 20:05:34 10° WNW 20:09:44 81° SSW 20:09:44 81° SSW
Cosmos 2228 3.4 20:11:02 50° NE 20:11:02 50° NE 20:14:29 10° NNE
MOS 1 Rocket 3.8 20:07:27 10° N 20:12:37 72° WNW 20:17:59 10° SSW
STARLINK-1246 4.2 20:09:28 10° W 20:13:27 53° NNW 20:14:18 44° NNE
STARLINK-1097 3.6 20:10:32 10° WNW 20:14:29 73° WSW 20:14:29 73° WSW
Cosmos 292 Rocket 4.1 20:13:16 10° NNW 20:18:00 60° WSW 20:19:07 46° SSW
Cosmos 1943 3.3 20:19:28 54° E 20:19:28 54° E 20:24:34 10° NE
STARLINK-1099 3.8 20:15:32 10° WNW 20:19:17 65° WSW 20:19:17 65° WSW
Cosmos 1943 Rocket 2.6 20:15:34 10° NW 20:20:59 56° WSW 20:22:51 38° SSW
Cosmos 2058 Rocket 4.4 20:24:10 29° NE 20:24:10 29° NE 20:26:36 10° NNE
STARLINK-1224 4.3 20:18:24 10° W 20:22:19 49° NNW 20:22:45 47° N
Cosmos 2074 Rocket 4.3 20:17:04 10° NNW 20:23:16 66° W 20:26:45 27° SSW
NOSS 3-4 (A) 4.2 20:17:06 10° NW 20:23:46 51° NE 20:25:57 40° E
NOSS 3-4 (C) 4.2 20:17:12 10° NW 20:23:52 51° NE 20:26:03 39° E
STARLINK-1104 4.0 20:20:32 10° WNW 20:24:04 57° WSW 20:24:04 57° WSW
STARLINK-1225 4.3 20:23:08 10° W 20:27:03 48° NNW 20:27:17 47° N
Cosmos 1328 4.2 20:23:26 10° N 20:26:45 59° NNW 20:26:45 59° NNW
STARLINK-1203 4.4 20:24:52 10° W 20:28:40 45° NNW 20:28:44 45° N
STARLINK-1144 4.3 20:25:30 10° WNW 20:28:50 50° W 20:28:50 50° W
Cosmos 1953 3.8 20:29:29 21° SW 20:31:32 35° WNW 20:35:13 10° N
STARLINK-1230 4.4 20:27:48 10° W 20:31:43 46° NNW 20:31:44 46° NNW
SPOT 1/Viking Rocket 3.4 20:32:06 73° E 20:32:11 73° ENE 20:37:24 10° N
Meteor 2-10 4.5 20:28:33 21° SSW 20:32:11 64° WNW 20:37:42 10° N
NOSS 3-3 (A) 3.8 20:27:31 10° SSW 20:33:22 77° SE 20:40:01 10° NE
NOSS 3-3 (C) 3.8 20:27:38 10° SSW 20:33:28 76° SE 20:40:06 10° NE
Spot 2 Rocket 3.6 20:33:06 63° SSW 20:33:49 73° WSW 20:38:57 10° NNW
Cosmos 2084 Rocket 4.3 20:31:15 10° NW 20:35:19 45° WSW 20:35:19 45° WSW
SL-16 R/B 3.9 20:30:52 10° WSW 20:35:55 32° NW 20:40:59 10° NNE
Cosmos 1610 Rocket 4.5 20:31:07 10° NNW 20:37:21 77° W 20:39:04 50° S
IGS 5A 4.2 20:42:15 51° NNW 20:42:15 51° NNW 20:45:25 10° NNW
Terra 2.8 20:49:36 38° NNE 20:49:36 38° NNE 20:52:55 10° N
Cosmos 2341 Rocket 3.9 20:47:11 10° N 20:53:34 80° E 20:53:51 78° ESE
Cosmos 1726 Rocket 4.4 20:55:08 48° NW 20:55:08 48° NW 20:58:44 10° N
ATLAS 2AS CENTAUR R/B 2.7 20:49:02 10° NW 20:56:45 75° NE 20:57:41 66° E
Cosmos 1603 4.0 20:53:26 21° SW 20:57:12 64° WNW 21:02:49 10° NNE
USA 234 3.8 20:51:28 10° NE 20:57:51 57° NNW 21:04:12 10° W
APEX 4.4 20:59:14 10° NNW 21:06:05 76° NE 21:06:05 76° NE
CZ-2C R/B 4.5 21:03:23 10° N 21:07:41 27° WNW 21:11:59 10° WSW
Aureole 1 Rocket 4.2 21:07:14 69° S 21:08:15 83° ESE 21:14:55 10° NNE
COSMOS 2455 3.3 21:05:42 10° NNW 21:11:09 50° NE 21:11:09 50° NE
Cosmos 2218 Rocket 4.1 21:16:04 10° N 21:21:26 67° NNE 21:21:26 67° NNE
Cosmos 1656 Rocket 4.4 21:17:46 10° NW 21:22:37 47° W 21:22:37 47° W
ERS-1 Rocket 4.0 21:28:47 41° WNW 21:28:47 41° WNW 21:32:38 10° NNW
Cosmos 2181 Rocket 4.2 21:33:10 67° N 21:33:10 67° N 21:38:31 10° N
SPOT 5 4.5 21:35:19 29° NW 21:35:19 29° NW 21:37:41 10° NNW
Cosmos 2369 Rocket 4.2 21:35:21 10° WNW 21:39:10 19° W 21:39:39 19° WSW
CZ-4C R/B 4.3 21:58:13 10° NNW 22:03:55 29° NNE 22:06:33 23° ENE
Mayak 1.6 22:06:19 10° N 22:06:55 14° N 22:06:55 14° N
Terra 4.3 22:28:29 16° WNW 22:28:29 16° WNW 22:30:01 10° NW
Cosmos 1697 Rocket 4.3 22:22:43 10° NNW 22:26:03 30° N 22:26:03 30° N
USA 234 4.4 22:34:13 10° ENE 22:40:12 39° N 22:46:10 10° WNW
ATLAS 2AS CENTAUR R/B 4.3 22:40:52 10° NW 22:45:08 26° W 22:45:08 26° W
Cosmos 1980 Rocket 3.9 22:47:49 10° NNW 22:50:54 27° N 22:50:54 27° N
Cosmos 2082 Rocket 4.5 23:15:19 17° NE 23:15:19 17° NE 23:16:35 10° NE
SL-16 R/B 4.4 23:21:37 21° ENE 23:21:58 21° NE 23:26:26 10° N
ATLAS 5 CENTAUR R/B 4.4 23:39:12 17° NNE 23:39:12 17° NNE 23:40:44 10° NNE
Cosmos 1833 Rocket 4.5 23:45:09 27° NNE 23:45:09 27° NNE 23:47:37 10° NNE
